This demonstration page uses our WeatherBlox Daily Observations layout. Learn more.

36.17497, -115.13722

Hourly Observations for January 27, 2018

Temp ( °F °C ) Dew Point ( °F °C ) Humidity (%) Winds ( mph kmh ) Pressure ( in mb ) Visibility ( mi km ) Precip ( " mm )
12:53 am 00:53 Clear 42 5.6 14 -10 32 32 Calm 30.33 1027 10 16.0934 0 0
1:53 am 01:53 Clear 41 5 15 -9.4 35 35 Calm 30.34 1027 10 16.0934 0 0
2:53 am 02:53 Clear 40 4.4 14 -10 35 35 WNW 5 7 30.33 1027 10 16.0934 0 0
3:53 am 03:53 Clear 39 3.9 13 -10.6 34 34 WNW 9 15 30.33 1027 10 16.0934 0 0
4:53 am 04:53 Clear 38 3.3 13 -10.6 36 36 WNW 7 11 30.35 1028 10 16.0934 0 0
5:53 am 05:53 Clear 39 3.9 12 -11.1 33 33 WNW 6 9 30.37 1028 10 16.0934 0 0
6:53 am 06:53 Sunny 39 3.9 13 -10.6 34 34 WNW 6 9 30.39 1029 10 16.0934 0 0
7:53 am 07:53 Sunny 44 6.7 12 -11.1 27 27 NNW 8 13 30.41 1030 10 16.0934 0 0
8:53 am 08:53 Sunny 49 9.4 11 -11.7 21 21 NNW 13 20 30.42 1030 10 16.0934 0 0
9:53 am 09:53 Sunny 53 11.7 11 -11.7 18 18 N 8 13 30.43 1031 10 16.0934 0 0
10:53 am 10:53 Sunny 56 13.3 10 -12.2 16 16 NE 6 9 30.42 1030 10 16.0934 0 0
11:53 am 11:53 Sunny 56 13.3 12 -11.1 17 17 ESE 6 9 30.4 1030 10 16.0934 0 0
12:53 pm 12:53 Sunny 57 13.9 11 -11.7 16 16 ESE 6 9 30.37 1029 10 16.0934 0 0
1:53 pm 13:53 Sunny 59 15 9 -12.8 13 13 SSE 6 9 30.36 1028 10 16.0934 0 0
2:53 pm 14:53 Sunny 59 15 11 -11.7 15 15 ESE 6 9 30.35 1028 10 16.0934 0 0
3:53 pm 15:53 Sunny 59 15 10 -12.2 14 14 Calm 30.36 1028 10 16.0934 0 0
4:53 pm 16:53 Sunny 59 15 9 -12.8 13 13 Calm 30.36 1028 10 16.0934 0 0
5:53 pm 17:53 Clear 55 12.8 11 -11.7 17 17 Calm 30.38 1029 10 16.0934 0 0
6:53 pm 18:53 Clear 54 12.2 14 -10 20 20 Calm 30.39 1029 10 16.0934 0 0
7:53 pm 19:53 Clear 51 10.6 18 -7.8 27 27 VRB 3 6 30.4 1030 10 16.0934 0 0
8:53 pm 20:53 Clear 53 11.7 14 -10 21 21 NNW 9 15 30.4 1029 10 16.0934 0 0
9:53 pm 21:53 Clear 52 11.1 15 -9.4 23 23 ESE 7 11 30.42 1030 10 16.0934 0 0
10:53 pm 22:53 Clear 54 12.2 14 -10 20 20 SE 3 6 30.42 1030 10 16.0934 0 0
11:53 pm 23:53 Clear 52 11.1 14 -10 22 22 N 10 17 30.42 1030 10 16.0934 0 0

Powered by AerisWeather